User: anonymous   Login
Location: Capelle
(50.3413°N, 1.9974°E)
Time: 01:02:42
(UTC+00:00)
Language:

Cosmos 2366 rocket - Orbit

View from above orbital plane
View from above orbital plane
View from above satellite
View from above satellite

Ground track
Ground track

The orbit is defined by the following mean orbital elements,

1 25893U          26070.80658028 +.00000000 +00000-0 +66100-4 0 00009
2 25893  82.9306 169.8646 0029038 172.7510 304.4538 13.76827481    06
Epoch (UTC): 11 March 2026 19:21:28
Eccentricity: 0.0029038
inclination: 82.9306°
perigee height: 954 km
apogee height: 997 km
right ascension of ascending node: 169.8646°
argument of perigee: 172.7510°
revolutions per day: 13.76827481
mean anomaly at epoch: 304.4538°

The dashed part of the orbit path shows where the satellite is in the earth's shadow,  

DLR